Погода в Заклиньем

Россия / Псковская область     57°41′20″N   29°53′24″E
темп.,
°C
ветер,
м/с
пор.,
м/с
влажн.,
%
обл.,
%
осадки,
мм/ч
давл.,
гПа
погр.,
м
24 июня, чт
чт2400:00+22юз22726 0.0 101723
03:00+20зюз22835 0.0 101823
06:00+21с008558 0.0 101842
09:00+23вюв1288100 1.8 1017163
12:00+29ююз2463100 0.3 1017804
15:00+30зюз245595 1.4 10161352
18:00+30ююз5652100 0.3 10151537
21:00+18вюв2290100 3.4 101525
25 июня, пт
пт2500:00+17юв239480 0.2 101659
03:00+17ю119735 2.7 101611
06:00+18ююв249623 0.0 1014119
09:00+24юв2376100 0.1 1014359
12:00+28ююв135958 0.0 1013800
15:00+29з23569 0.2 1011693
18:00+23зюз6891100 5.3 1010344
21:00+18вюв2697100 29.0 1011152
26 июня, сб
сб2600:00+17юз1397100 0.0 101289
03:00+17в2299100 0.0 101150
06:00+19ююв0197100 0.0 101151
09:00+24ю128023 0.0 1012430
12:00+29зюз015981 0.0 10111162
15:00+28ююз3360100 0.8 1011887
18:00+24юз2590100 1.5 1011141
21:00+23зсз129163 2.1 101115
27 июня, вс
вс2700:00+20зюз229579 0.9 101228
03:00+19зюз2398100 1.7 101258
06:00+19з259998 0.9 1012172
09:00+22з348988 0.9 1012487
12:00+26зюз236375 0.0 10121157
15:00+27юз445293 0.1 10121561
18:00+25юз356288 0.0 1012889
21:00+21зюз310745 0.0 1011361
28 июня, пн
пн2800:00+17з29875 0.0 1013220
03:00+15з279815 0.0 1013176
06:00+16зюз26896 0.0 1013209
09:00+20зюз466584 0.0 1013852
12:00+22з4663100 0.0 10131295
15:00+24з4650100 0.0 10131746
18:00+24сз3558100 0.0 10131084
21:00+20з22784 0.0 101315